�������l�o���
Date,Time,MP-1(��Sv/h),MP-2(��Sv/h),MP-3(��Sv/h),MP-4(��Sv/h),MP-5(��Sv/h),MP-6(��Sv/h),MP-7(��Sv/h),MP-8(��Sv/h),����,����(m/s),���J
2023/12/03,00:00,0.527,0.801,0.495,1.006,0.722,0.317,0.571,0.531,���k��,0.9,��
2023/12/03,00:10,0.528,0.801,0.495,1.007,0.721,0.317,0.569,0.530,���k��,2.2,��
2023/12/03,00:20,0.528,0.802,0.494,1.007,0.720,0.316,0.569,0.532,���k��,2.3,��
2023/12/03,00:30,0.529,0.802,0.494,1.006,0.720,0.318,0.569,0.530,�k��,0.8,��
2023/12/03,00:40,0.528,0.802,0.495,1.008,0.721,0.315,0.570,0.531,�k,1.2,��
2023/12/03,00:50,0.528,0.801,0.493,1.010,0.722,0.317,0.569,0.532,�k��,2.8,��
2023/12/03,01:00,0.528,0.802,0.494,1.007,0.721,0.315,0.568,0.530,�k��,2.3,��
2023/12/03,01:10,0.530,0.803,0.494,1.007,0.721,0.317,0.570,0.532,��쐼,1.5,��
2023/12/03,01:20,0.529,0.802,0.494,1.009,0.722,0.316,0.570,0.530,�쐼,1.4,��
2023/12/03,01:30,0.526,0.802,0.494,1.008,0.723,0.316,0.568,0.531,��,1.2,��
2023/12/03,01:40,0.530,0.801,0.494,1.006,0.722,0.316,0.568,0.532,��,1.4,��
2023/12/03,01:50,0.528,0.802,0.496,1.006,0.722,0.317,0.567,0.532,��,1.5,��
2023/12/03,02:00,0.528,0.802,0.495,1.006,0.721,0.317,0.569,0.529,��쐼,1.7,��
2023/12/03,02:10,0.528,0.801,0.495,1.006,0.721,0.317,0.569,0.530,��,1.4,��
2023/12/03,02:20,0.529,0.802,0.493,1.008,0.722,0.318,0.569,0.530,�쐼,1.2,��
2023/12/03,02:30,0.528,0.803,0.494,1.006,0.722,0.316,0.568,0.532,���쐼,0.6,��
2023/12/03,02:40,0.528,0.800,0.495,1.004,0.721,0.316,0.568,0.531,��쐼,0.9,��
2023/12/03,02:50,0.529,0.802,0.494,1.006,0.722,0.316,0.568,0.531,��,1.2,��
2023/12/03,03:00,0.527,0.803,0.493,1.005,0.719,0.317,0.568,0.530,��쐼,1.1,��
2023/12/03,03:10,0.528,0.803,0.495,1.007,0.721,0.318,0.570,0.531,�쐼,1.1,��
2023/12/03,03:20,0.528,0.800,0.494,1.007,0.720,0.316,0.569,0.530,��,2.0,��
2023/12/03,03:30,0.527,0.802,0.494,1.006,0.720,0.317,0.568,0.531,��,2.5,��
2023/12/03,03:40,0.527,0.802,0.495,1.008,0.719,0.316,0.569,0.530,��,2.0,��
2023/12/03,03:50,0.528,0.802,0.494,1.009,0.721,0.317,0.569,0.532,��쐼,2.6,��
2023/12/03,04:00,0.529,0.801,0.495,1.007,0.719,0.317,0.567,0.530,��,3.0,��
2023/12/03,04:10,0.529,0.801,0.495,1.005,0.721,0.316,0.568,0.529,��,3.5,��
2023/12/03,04:20,0.528,0.802,0.494,1.008,0.720,0.317,0.569,0.532,��,4.0,��
2023/12/03,04:30,0.528,0.801,0.495,1.008,0.719,0.316,0.568,0.530,��,4.2,��
2023/12/03,04:40,0.529,0.801,0.494,1.006,0.721,0.317,0.567,0.533,��쐼,3.3,��
2023/12/03,04:50,0.528,0.802,0.493,1.007,0.722,0.318,0.570,0.532,��쐼,2.8,��
2023/12/03,05:00,0.528,0.803,0.494,1.006,0.721,0.317,0.568,0.532,��쐼,3.1,��
2023/12/03,05:10,0.528,0.804,0.495,1.006,0.722,0.318,0.570,0.530,��쐼,3.4,��
2023/12/03,05:20,0.529,0.802,0.493,1.008,0.721,0.317,0.569,0.532,�쐼,3.3,��
2023/12/03,05:30,0.528,0.800,0.495,1.006,0.721,0.316,0.567,0.530,�쐼,3.0,��
2023/12/03,05:40,0.527,0.801,0.494,1.005,0.723,0.317,0.569,0.532,���쐼,2.8,��
2023/12/03,05:50,0.528,0.803,0.495,1.006,0.720,0.317,0.569,0.530,�쐼,1.5,��
2023/12/03,06:00,0.528,0.799,0.495,1.005,0.720,0.316,0.568,0.532,��쐼,3.0,��
2023/12/03,06:10,0.528,0.800,0.492,1.007,0.720,0.317,0.568,0.532,��쐼,4.9,��
2023/12/03,06:20,0.528,0.800,0.492,1.007,0.722,0.318,0.569,0.532,��쐼,5.8,��
2023/12/03,06:30,0.529,0.803,0.494,1.008,0.720,0.317,0.569,0.532,��쐼,5.6,��
2023/12/03,06:40,0.526,0.801,0.496,1.009,0.721,0.316,0.570,0.531,��쐼,5.8,��
2023/12/03,06:50,0.528,0.801,0.493,1.006,0.720,0.317,0.569,0.531,��쐼,5.5,��
2023/12/03,07:00,0.526,0.801,0.494,1.005,0.720,0.318,0.569,0.532,��쐼,5.3,��
2023/12/03,07:10,0.527,0.801,0.495,1.006,0.720,0.316,0.569,0.531,��쐼,3.8,��
2023/12/03,07:20,0.529,0.801,0.495,1.010,0.721,0.318,0.569,0.530,��쐼,3.6,��
2023/12/03,07:30,0.527,0.802,0.494,1.007,0.721,0.317,0.569,0.531,��쐼,5.1,��
2023/12/03,07:40,0.528,0.802,0.494,1.007,0.719,0.316,0.569,0.530,��,6.2,��
2023/12/03,07:50,0.530,0.804,0.493,1.006,0.719,0.318,0.569,0.532,��,6.4,��
2023/12/03,08:00,0.529,0.802,0.494,1.006,0.721,0.318,0.569,0.531,��,5.5,��
2023/12/03,08:10,0.529,0.803,0.495,1.007,0.721,0.318,0.569,0.532,��,3.8,��
2023/12/03,08:20,0.530,0.802,0.495,1.008,0.719,0.317,0.570,0.532,��,3.0,��
2023/12/03,08:30,0.527,0.804,0.495,1.005,0.719,0.318,0.570,0.532,��쓌,2.3,��
2023/12/03,08:40,0.528,0.804,0.495,1.008,0.721,0.319,0.570,0.532,��쓌,2.6,��
2023/12/03,08:50,0.528,0.802,0.495,1.007,0.723,0.317,0.568,0.532,��쓌,2.3,��
2023/12/03,09:00,0.530,0.803,0.496,1.010,0.721,0.318,0.573,0.533,��쓌,2.9,��
2023/12/03,09:10,0.529,0.804,0.497,1.009,0.722,0.320,0.570,0.531,��,3.5,��
2023/12/03,09:20,0.530,0.803,0.498,1.007,0.721,0.319,0.571,0.533,��,5.6,��
2023/12/03,09:30,0.528,0.801,0.498,1.005,0.720,0.319,0.570,0.532,��,6.2,��
2023/12/03,09:40,0.529,0.801,0.496,1.008,0.722,0.320,0.569,0.533,��,7.2,��
2023/12/03,09:50,0.531,0.799,0.498,1.009,0.721,0.319,0.569,0.533,��,7.7,��
2023/12/03,10:00,0.529,0.802,0.496,1.008,0.720,0.320,0.570,0.532,��,7.1,��
2023/12/03,10:10,0.530,0.801,0.497,1.008,0.721,0.319,0.571,0.533,��,8.5,��
2023/12/03,10:20,0.530,0.802,0.497,1.008,0.722,0.319,0.570,0.532,��,7.1,��
2023/12/03,10:30,0.530,0.803,0.495,1.009,0.722,0.319,0.571,0.532,��,7.5,��
2023/12/03,10:40,0.529,0.802,0.496,1.008,0.724,0.319,0.570,0.532,��,7.9,��
2023/12/03,10:50,0.529,0.801,0.497,1.009,0.723,0.318,0.570,0.532,��,10.2,��
2023/12/03,11:00,0.530,0.800,0.498,1.009,0.723,0.319,0.571,0.532,��,9.0,��
2023/12/03,11:10,0.529,0.803,0.497,1.008,0.724,0.317,0.570,0.534,��,11.1,��
2023/12/03,11:20,0.529,0.804,0.497,1.008,0.724,0.319,0.571,0.534,��,12.7,��
2023/12/03,11:30,0.528,0.804,0.499,1.008,0.725,0.317,0.571,0.533,��쐼,10.5,��
2023/12/03,11:40,0.528,0.803,0.497,1.009,0.725,0.318,0.572,0.535,��,9.9,��
2023/12/03,11:50,0.530,0.801,0.498,1.008,0.724,0.318,0.571,0.532,��쐼,7.8,��
2023/12/03,12:00,0.530,0.803,0.497,1.009,0.725,0.319,0.571,0.533,��쐼,9.2,��
2023/12/03,12:10,0.529,0.801,0.496,1.009,0.726,0.318,0.571,0.536,��쐼,11.0,��
2023/12/03,12:20,0.529,0.801,0.497,1.010,0.725,0.320,0.571,0.533,��쐼,9.0,��
2023/12/03,12:30,0.528,0.802,0.497,1.007,0.725,0.320,0.570,0.533,��쐼,10.2,��
2023/12/03,12:40,0.528,0.802,0.497,1.010,0.724,0.321,0.570,0.532,��쐼,8.3,��
2023/12/03,12:50,0.530,0.800,0.496,1.010,0.725,0.322,0.570,0.532,��,9.2,��
2023/12/03,13:00,0.529,0.804,0.499,1.007,0.725,0.319,0.572,0.530,��쐼,7.8,��
2023/12/03,13:10,0.531,0.800,0.497,1.010,0.724,0.320,0.572,0.531,��쐼,6.4,��
2023/12/03,13:20,0.531,0.800,0.497,1.009,0.724,0.320,0.572,0.531,�쐼,5.4,��
2023/12/03,13:30,0.531,0.802,0.498,1.012,0.722,0.319,0.572,0.532,��쐼,6.2,��
2023/12/03,13:40,0.531,0.803,0.498,1.011,0.723,0.319,0.571,0.531,�쐼,4.4,��
2023/12/03,13:50,0.529,0.803,0.498,1.009,0.724,0.321,0.573,0.532,��쐼,3.2,��
2023/12/03,14:00,0.533,0.801,0.500,1.009,0.724,0.319,0.573,0.533,�쐼,4.0,��
2023/12/03,14:10,0.531,0.803,0.497,1.009,0.724,0.320,0.573,0.531,���쐼,5.1,��
2023/12/03,14:20,0.531,0.802,0.496,1.013,0.723,0.318,0.573,0.531,���쐼,4.2,��
2023/12/03,14:30,0.529,0.805,0.496,1.008,0.725,0.321,0.573,0.533,�쐼,3.2,��
2023/12/03,14:40,0.529,0.801,0.496,1.011,0.726,0.321,0.572,0.531,��,5.4,��
2023/12/03,14:50,0.530,0.804,0.497,1.010,0.726,0.320,0.572,0.531,���쐼,2.9,��
2023/12/03,15:00,0.529,0.806,0.496,1.011,0.725,0.320,0.573,0.532,���쐼,3.0,��
2023/12/03,15:10,0.530,0.807,0.496,1.011,0.725,0.320,0.573,0.532,���k��,3.9,��
2023/12/03,15:20,0.528,0.809,0.497,1.009,0.722,0.320,0.572,0.533,���k��,6.3,��
2023/12/03,15:30,0.528,0.805,0.499,1.010,0.722,0.320,0.572,0.534,���k��,7.0,��
2023/12/03,15:40,0.530,0.805,0.498,1.010,0.724,0.321,0.571,0.534,���k��,7.2,��
2023/12/03,15:50,0.531,0.806,0.499,1.011,0.724,0.321,0.572,0.533,���k��,7.4,��
2023/12/03,16:00,0.532,0.806,0.500,1.010,0.724,0.320,0.570,0.534,�k��,6.6,��
2023/12/03,16:10,0.531,0.807,0.498,1.011,0.723,0.320,0.569,0.535,�k�k��,6.1,��
2023/12/03,16:20,0.533,0.804,0.498,1.013,0.723,0.321,0.571,0.535,�k��,4.9,��
2023/12/03,16:30,0.532,0.805,0.498,1.010,0.724,0.319,0.572,0.533,���k��,7.3,��
2023/12/03,16:40,0.531,0.806,0.498,1.009,0.724,0.320,0.570,0.534,���k��,7.2,��
2023/12/03,16:50,0.532,0.805,0.498,1.008,0.726,0.320,0.572,0.534,���k��,8.1,��
2023/12/03,17:00,0.531,0.806,0.498,1.009,0.724,0.319,0.569,0.532,��,6.3,��
2023/12/03,17:10,0.531,0.806,0.498,1.011,0.726,0.319,0.571,0.532,��,7.5,��
2023/12/03,17:20,0.532,0.805,0.497,1.010,0.725,0.319,0.571,0.534,��,5.2,��
2023/12/03,17:30,0.532,0.806,0.498,1.012,0.724,0.320,0.571,0.534,���쐼,7.1,��
2023/12/03,17:40,0.532,0.806,0.497,1.010,0.728,0.319,0.571,0.533,���쐼,8.6,��
2023/12/03,17:50,0.532,0.808,0.499,1.012,0.724,0.320,0.571,0.534,��,11.6,��
2023/12/03,18:00,0.530,0.807,0.498,1.010,0.726,0.320,0.570,0.533,���쐼,9.9,��
2023/12/03,18:10,0.532,0.805,0.498,1.012,0.726,0.319,0.572,0.533,��,8.5,��
2023/12/03,18:20,0.531,0.808,0.497,1.011,0.725,0.318,0.573,0.534,���쐼,8.7,��
2023/12/03,18:30,0.530,0.807,0.499,1.012,0.723,0.319,0.572,0.534,��,8.2,��
2023/12/03,18:40,0.531,0.807,0.496,1.013,0.728,0.319,0.574,0.534,��,7.5,��
2023/12/03,18:50,0.531,0.806,0.498,1.013,0.727,0.320,0.571,0.534,��,8.1,��
2023/12/03,19:00,0.531,0.807,0.498,1.013,0.725,0.319,0.570,0.534,�k��,5.1,��
2023/12/03,19:10,0.532,0.806,0.496,1.014,0.724,0.318,0.571,0.534,�k�k��,5.1,��
2023/12/03,19:20,0.531,0.804,0.496,1.010,0.727,0.319,0.572,0.534,�k��,5.1,��
2023/12/03,19:30,0.531,0.806,0.498,1.012,0.725,0.319,0.571,0.534,�k��,4.8,��
2023/12/03,19:40,0.533,0.804,0.499,1.012,0.725,0.319,0.573,0.534,���k��,7.6,��
2023/12/03,19:50,0.530,0.805,0.497,1.012,0.725,0.319,0.572,0.534,���k��,6.5,��
2023/12/03,20:00,0.531,0.804,0.497,1.012,0.723,0.319,0.574,0.533,��,6.7,��
2023/12/03,20:10,0.533,0.806,0.499,1.011,0.724,0.317,0.573,0.534,���쐼,6.3,��
2023/12/03,20:20,0.532,0.804,0.497,1.009,0.726,0.319,0.571,0.535,���k��,3.4,��
2023/12/03,20:30,0.531,0.805,0.497,1.010,0.724,0.318,0.572,0.533,��,2.2,��
2023/12/03,20:40,0.531,0.804,0.497,1.012,0.726,0.318,0.572,0.532,���k��,3.7,��
2023/12/03,20:50,0.530,0.807,0.497,1.013,0.723,0.319,0.572,0.533,�k��,3.7,��
2023/12/03,21:00,0.531,0.805,0.496,1.012,0.726,0.318,0.572,0.534,�k��,6.9,��
2023/12/03,21:10,0.531,0.804,0.497,1.011,0.724,0.318,0.572,0.532,�k��,8.6,��
2023/12/03,21:20,0.529,0.806,0.498,1.010,0.724,0.319,0.573,0.534,�k��,8.6,��
2023/12/03,21:30,0.529,0.805,0.497,1.009,0.724,0.319,0.571,0.532,�k��,11.8,��
2023/12/03,21:40,0.532,0.805,0.497,1.008,0.723,0.319,0.572,0.533,�k��,9.2,��
2023/12/03,21:50,0.530,0.805,0.496,1.013,0.725,0.317,0.574,0.534,�k��,7.2,��
2023/12/03,22:00,0.531,0.804,0.497,1.012,0.726,0.318,0.572,0.535,���k��,7.3,��
2023/12/03,22:10,0.531,0.805,0.496,1.009,0.725,0.317,0.572,0.533,�k��,6.4,��
2023/12/03,22:20,0.531,0.806,0.496,1.012,0.724,0.317,0.573,0.533,�k��,6.6,��
2023/12/03,22:30,0.531,0.803,0.496,1.011,0.725,0.319,0.573,0.534,�k��,6.4,��
2023/12/03,22:40,0.530,0.804,0.496,1.011,0.723,0.316,0.572,0.532,�k��,8.5,��
2023/12/03,22:50,0.530,0.804,0.498,1.010,0.723,0.318,0.573,0.532,�k��,8.0,��
2023/12/03,23:00,0.531,0.807,0.497,1.011,0.725,0.319,0.573,0.532,�k�k��,4.5,��
2023/12/03,23:10,0.531,0.808,0.496,1.011,0.723,0.317,0.573,0.533,�k�k��,5.0,��
2023/12/03,23:20,0.531,0.805,0.498,1.011,0.724,0.318,0.572,0.534,�k�k��,5.6,��
2023/12/03,23:30,0.529,0.804,0.496,1.009,0.723,0.319,0.571,0.532,�k�k��,5.6,��
2023/12/03,23:40,0.529,0.805,0.496,1.009,0.724,0.317,0.573,0.533,�k�k��,5.2,��
2023/12/03,23:50,0.530,0.806,0.496,1.010,0.724,0.316,0.572,0.533,�k��,5.1,��
